• Join FlightAware (Why Join?)
  • Login
  • US Flag 
08:25PM EDT


 

Airport Tracker/Info


-or-


 

Live Flight TrackerFlight Track Log ✈ SWA662 ✈ 14-Jun-2013 ✈ KLAX - KDEN

Flight Track Log - Related Links

Times and Time Zones

All times are in EDT time to prevent confusion due to time zone crossing. See the SWA662 flight status page for this flight to view local times or setup timezone preferences in your user account.

Time Position Orientation Groundspeed Altitude Reporting Facility
EDT Latitude Longitude Course Direction KTS MPH feet Rate Location/Type
12:40AM 33.9447 -118.4567 232° Southwest 167 192 1,600  Level Los Angeles Center
12:41AM 33.9094 -118.5103 232° Southwest 247 284 3,000 2,160 Climbing Los Angeles Center
12:42AM 33.8297 -118.5153 183° South 270 311 6,100 2,940 Climbing Los Angeles Center
12:43AM 33.7544 -118.5181 182° South 275 316 9,100 2,280 Climbing Los Angeles Center
12:45AM 33.6508 -118.3689 130° Southeast 354 407 13,300 2,520 Climbing Los Angeles Center
12:46AM 33.6442 -118.2219 93° East 382 440 17,000 2,880 Climbing Los Angeles Center
12:47AM 33.7086 -118.1217 52° Northeast 411 473 19,300 2,040 Climbing Los Angeles Center
12:48AM 33.7992 -118.0403 37° Northeast 411 473 21,200 1,980 Climbing Los Angeles Center
12:49AM 33.8953 -117.9539 37° Northeast 431 496 23,400 2,040 Climbing Los Angeles Center
12:50AM 33.9928 -117.8658 37° Northeast 439 505 25,400 1,800 Climbing Los Angeles Center
12:51AM 34.0917 -117.7731 38° Northeast 449 517 27,100 1,620 Climbing Los Angeles Center
12:52AM 34.1969 -117.6319 48° Northeast 471 542 28,800 1,320 Climbing Los Angeles Center
12:53AM 34.2858 -117.5111 48° Northeast 481 554 29,900 1,080 Climbing Los Angeles Center
12:54AM 34.3786 -117.3850 48° Northeast 498 573 31,100 1,320 Climbing Los Angeles Center
12:55AM 34.4747 -117.2511 49° Northeast 506 582 32,700 1,320 Climbing Los Angeles Center
12:56AM 34.5664 -117.1247 49° Northeast 504 580 33,900 1,080 Climbing Los Angeles Center
12:57AM 34.6600 -116.9964 48° Northeast 510 587 35,000 1,080 Climbing Los Angeles Center
12:58AM 34.7525 -116.8669 49° Northeast 512 589 36,200 960 Climbing Los Angeles Center
12:59AM 34.8458 -116.7386 48° Northeast 509 586 37,000 360 Climbing Los Angeles Center
01:00AM 34.9378 -116.6078 49° Northeast 509 586 37,000  Level Los Angeles Center
01:01AM 35.0356 -116.4381 55° Northeast 512 589 37,000  Level Los Angeles Center
01:02AM 35.1000 -116.2864 63° Northeast 506 582 37,000  Level Los Angeles Center
01:03AM 35.1675 -116.1347 61° Northeast 508 585 37,000  Level Los Angeles Center
01:04AM 35.2333 -115.9831 62° Northeast 506 582 37,000  Level Los Angeles Center
01:05AM 35.3000 -115.8308 62° Northeast 508 585 37,000  Level Los Angeles Center
01:06AM 35.3672 -115.6767 62° Northeast 512 589 37,000  Level Los Angeles Center
01:07AM 35.4417 -115.5025 62° Northeast 506 582 37,000  Level Los Angeles Center
01:08AM 35.5083 -115.3489 62° Northeast 512 589 37,000  Level Los Angeles Center
01:09AM 35.5744 -115.1961 62° Northeast 510 587 37,000  Level Los Angeles Center
01:10AM 35.6381 -115.0450 63° Northeast 503 579 37,000  Level Los Angeles Center
01:11AM 35.7033 -114.8917 62° Northeast 506 582 37,000  Level Los Angeles Center
01:13AM 35.7642 -114.7431 63° Northeast 494 568 37,000  Level Los Angeles Center
01:14AM 35.8278 -114.5894 63° Northeast 504 580 37,000  Level Los Angeles Center
01:15AM 35.8919 -114.4356 63° Northeast 506 582 37,000  Level Los Angeles Center
01:16AM 35.9681 -114.2528 63° Northeast 502 578 37,000  Level Los Angeles Center
01:17AM 36.0317 -114.1000 63° Northeast 502 578 37,000  Level Los Angeles Center
01:18AM 36.0950 -113.9447 63° Northeast 505 581 37,000  Level Los Angeles Center
01:19AM 36.1586 -113.7900 63° Northeast 507 583 37,000  Level Los Angeles Center
01:20AM 36.2225 -113.6347 63° Northeast 507 583 37,000  Level Los Angeles Center
01:21AM 36.2861 -113.4792 63° Northeast 507 583 37,000  Level Los Angeles Center
01:22AM 36.3489 -113.3233 63° Northeast 507 583 37,000  Level Los Angeles Center
01:23AM 36.4158 -113.1522 64° Northeast 507 583 37,000  Level Los Angeles Center
01:24AM 36.4783 -112.9969 63° Northeast 506 582 37,000  Level Los Angeles Center
01:25AM 36.5408 -112.8417 63° Northeast 506 582 37,000  Level Los Angeles Center
01:26AM 36.6019 -112.6856 64° Northeast 504 580 37,000  Level Los Angeles Center
01:27AM 36.6750 -112.4992 64° Northeast 502 578 37,000  Level Los Angeles Center
01:28AM 36.7358 -112.3439 64° Northeast 502 578 37,000  Level Los Angeles Center
01:29AM 36.7972 -112.1886 64° Northeast 502 578 37,000  Level Los Angeles Center
01:30AM 36.8564 -112.0347 64° Northeast 497 572 37,000  Level Los Angeles Center
01:31AM 36.9167 -111.8803 64° Northeast 497 572 37,000  Level Los Angeles Center
01:32AM 36.9761 -111.7242 64° Northeast 499 574 37,000  Level Los Angeles Center
01:33AM 37.0353 -111.5694 64° Northeast 496 571 37,000  Level Denver Center
01:34AM 37.0931 -111.4142 65° Northeast 495 570 37,000  Level Denver Center
01:35AM 37.1528 -111.2569 64° Northeast 501 577 37,000  Level Denver Center
01:36AM 37.2125 -111.0989 65° Northeast 503 579 37,000  Level Denver Center
01:37AM 37.2778 -110.9453 62° Northeast 502 578 37,000  Level Denver Center
01:38AM 37.3425 -110.7925 62° Northeast 499 574 37,000  Level Denver Center
01:39AM 37.4072 -110.6392 62° Northeast 498 573 37,000  Level Denver Center
01:40AM 37.4714 -110.4856 62° Northeast 499 574 37,000  Level Denver Center
01:41AM 37.5414 -110.3175 62° Northeast 495 570 37,000  Level Denver Center
01:42AM 37.6019 -110.1692 63° Northeast 496 571 37,000  Level Denver Center
01:43AM 37.6628 -110.0208 63° Northeast 496 571 37,000  Level Denver Center
01:44AM 37.7231 -109.8733 63° Northeast 495 570 37,000  Level Denver Center
01:45AM 37.7942 -109.7006 62° Northeast 497 572 37,000  Level Denver Center
01:46AM 37.8539 -109.5517 63° Northeast 497 572 37,000  Level Denver Center
01:47AM 37.9144 -109.4014 63° Northeast 500 575 37,000  Level Denver Center
01:48AM 37.9853 -109.2269 63° Northeast 498 573 37,000  Level Denver Center
01:49AM 38.0453 -109.0758 63° Northeast 499 574 37,000  Level Denver Center
01:50AM 38.1103 -108.9081 64° Northeast 504 580 37,000  Level Denver Center
01:51AM 38.1694 -108.7594 63° Northeast 497 572 37,000  Level Denver Center
01:52AM 38.2292 -108.6094 63° Northeast 497 572 37,000  Level Denver Center
01:53AM 38.2969 -108.4325 64° Northeast 498 573 37,000  Level Denver Center
01:54AM 38.3567 -108.2853 63° Northeast 493 567 37,000  Level Denver Center
01:55AM 38.4153 -108.1328 64° Northeast 499 574 37,000  Level Denver Center
01:56AM 38.4825 -107.9575 64° Northeast 496 571 37,000 -300 Level Denver Center
01:57AM 38.5392 -107.8094 64° Northeast 489 563 36,500 -720 Descending Denver Center
01:58AM 38.5967 -107.6569 64° Northeast 495 570 35,600 -960 Descending Denver Center
01:59AM 38.6750 -107.4508 64° Northeast 503 579 34,400 -1,020 Descending Denver Center
02:00AM 38.7322 -107.2997 64° Northeast 496 571 33,400 -720 Descending Denver Center
02:01AM 38.7958 -107.1306 64° Northeast 499 574 33,000 -240 Descending Denver Center
02:02AM 38.8542 -106.9706 65° Northeast 499 574 33,000  Level Denver Center
02:03AM 38.9214 -106.8206 60° Northeast 500 575 33,000  Level Denver Center
02:04AM 38.9894 -106.6733 59° Northeast 500 575 33,000  Level Denver Center
02:05AM 39.0675 -106.5000 60° Northeast 502 578 33,000  Level Denver Center
02:06AM 39.1336 -106.3503 60° Northeast 504 580 33,000  Level Denver Center
02:07AM 39.1989 -106.2025 60° Northeast 497 572 33,000 -660 Level Denver Center
02:08AM 39.2650 -106.0508 61° Northeast 496 571 31,700 -1,980 Descending Denver Center
02:09AM 39.3328 -105.8972 60° Northeast 493 567 29,100 -2,460 Descending Denver Center
02:10AM 39.3986 -105.7489 60° Northeast 479 551 26,800 -2,340 Descending Denver Center
02:11AM 39.4653 -105.6014 60° Northeast 467 537 24,500 -2,520 Descending Denver Center
02:12AM 39.5356 -105.4350 61° Northeast 453 521 21,800 -2,460 Descending Denver Center
02:13AM 39.5947 -105.2992 60° Northeast 437 503 19,600 -2,160 Descending Denver Center
02:14AM 39.6503 -105.1689 61° Northeast 418 481 17,500 -1,980 Descending Denver Center
02:15AM 39.7200 -105.0594 50° Northeast 400 460 15,700 -2,400 Descending Denver Center
02:16AM 39.8017 -104.9664 41° Northeast 391 450 12,700 -2,040 Descending Denver Center
02:17AM 39.8806 -104.8825 39° Northeast 365 420 11,600 -780 Descending Denver Center
02:18AM 39.9494 -104.8058 40° Northeast 312 359 11,200 -1,320 Descending Denver Center
02:19AM 40.0028 -104.7731 25° Northeast 275 316 9,000 -1,920 Descending Denver Center
02:20AM 39.9964 -104.6981 96° East 221 254 7,400 -1,320 Descending Denver Center
02:21AM 39.9472 -104.6953 178° South 177 204 6,400 -960 Descending Denver Center
02:22AM 39.9006 -104.6961 181° South 169 194 5,500 -900 Descending Denver Center
02:24AM 39.8617 -104.6732 146° Southeast  Level Estimated
02:31AM 39.8617 -104.6732 146° Southeast  Level Estimated
02:32AM 39.8617 -104.6732 146° Southeast  Level Estimated
02:33AM 39.8617 -104.6732 146° Southeast  Level Estimated